Location: La B�doule
(43.2468°N, 5.5934°E)
Time: 04:34:11
(UTC+00:00)

Iridium 2 - Pass Details

Date: 07 June 2020
Orbit: 505 x 515 km, 85.5° (Epoch: 04 July)

Event Time Altitude Azimuth Distance (km) Brightness Sun altitude
Rises 01:56:19 0° 349° (N) 2,621 8.0 -16.6°
Reaches altitude 10° 01:58:30 10° 342° (NNW) 1,732 6.9 -16.3°
Maximum altitude 02:02:05 43° 271° (W) 727 4.1 -16.0°
Enters shadow 02:03:14 32° 226° (SW) 884 4.3 -15.9°
